Home   Weather   Lahti   Past weeks

Flag for Finland Past Weather in Lahti, Finland — Yesterday and Last 2 Weeks

Now
21 °F

Light snow. Low clouds.


Feels Like: 16 °F
Forecast: 26 / 33 °F
Wind: 3 mph from West

Location: Utti

Current Time: Jan 17, 2017 at 1:16:42 pm

Latest Report: Jan 17, 2017 at 12:20 pm


Visibility: N/A

Pressure: 30.39 "Hg

Humidity: 93%

Dew Point: 19 °F

Location of LahtiLocation

Past Weather in Lahti — Graph

°F

Lahti Temperature Yesterday

Maximum temperature yesterday: 19 °F (at 12:20 am)
Minimum temperature yesterday: 14 °F (at 6:20 am)
Average temperature yesterday: 17 °F

High & Low Weather Summary for the Past Weeks

 TemperatureHumidityPressure
High36 °F (Jan 10, 9:50 am)100% (Jan 7, 6:50 pm)30.63 "Hg (Jan 7, 6:50 pm)
Low-11 °F (Jan 6, 6:20 am)65% (Jan 4, 1:20 pm)29.09 "Hg (Jan 13, 4:50 am)
Average19 °F88%29.85 "Hg
* Reported Jan 2 11:20 am — Jan 17 11:50 am, Lahti, Weather by CustomWeather, © 2017

Note: Actual official high and low records may vary slightly from our data, if they occured in-between our weather recording intervals... More about our weather records

Advertising

Lahti Weather History for the Previous 24 Hours

Scroll right to see more
 ConditionsComfort  
Time TempWeatherWind HumidityBarometerVisibility
11:50 am
Tue, Jan 17
21 °FLight snow. Low clouds.3 mph93%30.39 "HgN/A
11:20 am21 °FLight snow. Partly sunny.2 mph93%30.39 "HgN/A
10:50 am21 °FLight snow. Partly sunny.3 mph100%30.39 "HgN/A
10:20 am21 °FLight snow. Low clouds.3 mph100%30.39 "Hg4 mi
9:50 am21 °FLight snow. Low clouds.3 mph93%30.39 "HgN/A
9:20 am21 °FLight snow. Low clouds.3 mph93%30.36 "HgN/A
8:50 am21 °FLight snow. Low clouds.3 mph93%30.36 "HgN/A
8:20 am21 °FLight snow. Low clouds.2 mph93%30.36 "HgN/A
7:50 am21 °FLight snow. Low clouds.2 mph93%30.36 "HgN/A
7:20 am21 °FLight snow. Low clouds.2 mph93%30.36 "HgN/A
6:50 am21 °FLight snow. Low clouds.2 mph93%30.33 "HgN/A
6:20 am21 °FSnow flurries. Low clouds.5 mph93%30.33 "HgN/A
5:50 am21 °FSnow flurries. Low clouds.3 mph93%30.33 "HgN/A
5:20 am21 °FLow clouds.3 mph93%30.33 "HgN/A
4:50 am21 °FLow clouds.3 mph93%30.33 "HgN/A
4:20 am21 °FSnow flurries. Low clouds.5 mph93%30.33 "HgN/A
3:50 am21 °FSnow flurries. Low clouds.3 mph93%30.33 "HgN/A
3:20 am21 °FLow clouds.3 mph93%30.33 "HgN/A
2:50 am21 °FLow clouds.3 mph93%30.33 "HgN/A
2:20 am21 °FLow clouds.3 mph93%30.33 "HgN/A
1:50 am21 °FLow clouds.3 mph93%30.30 "HgN/A
1:20 am21 °FLow clouds.3 mph93%30.30 "HgN/A
12:50 am19 °FLow clouds.2 mph100%30.30 "HgN/A
12:20 am19 °FLow clouds.2 mph100%30.30 "HgN/A
11:50 pm
Mon, Jan 16
19 °FLow clouds.2 mph100%30.30 "HgN/A
11:20 pm19 °FLow clouds.2 mph100%30.30 "HgN/A
10:50 pm19 °FLow clouds.2 mph93%30.27 "HgN/A
10:20 pm19 °FLow clouds.2 mph93%30.27 "HgN/A
9:50 pm19 °FLow clouds.1 mph93%30.27 "HgN/A
9:20 pm19 °FLow clouds.1 mph93%30.27 "HgN/A
8:50 pm19 °FLow clouds.1 mph93%30.27 "HgN/A
8:20 pm18 °FLow clouds.2 mph100%30.24 "HgN/A
7:50 pm19 °FLow clouds.1 mph93%30.24 "HgN/A
7:20 pm19 °FLow clouds.1 mph93%30.24 "HgN/A
6:50 pm18 °FLow clouds.1 mph93%30.24 "HgN/A
6:20 pm18 °FMostly cloudy.No wind93%30.21 "HgN/A
5:50 pm18 °FMostly cloudy.No wind100%30.21 "HgN/A
5:20 pm19 °FLow clouds.No wind93%30.21 "HgN/A
4:50 pm19 °FLow clouds.No wind93%30.21 "HgN/A
4:20 pm19 °FLow clouds.1 mph93%30.18 "HgN/A
3:50 pm18 °FLow clouds.1 mph100%30.18 "HgN/A
3:20 pm18 °FLow clouds.1 mph93%30.18 "HgN/A
2:50 pm18 °FLow clouds.1 mph93%30.18 "HgN/A
2:20 pm18 °FLow clouds.1 mph93%30.15 "HgN/A
1:50 pm18 °FLow clouds.No wind93%30.15 "HgN/A
1:20 pm18 °FLow clouds.2 mph93%30.15 "HgN/A
Weather by CustomWeather, © 2017

See weather overviewHow to use our weather pages